Alfredo Vásquez Cobo International Airport
SKLT : rendu visible

Aérodrome :











RETROUVEZ-NOUS SUR...

 
LOGIN :

S'inscrire | Disclaimer

   EN    FR    IT 

 









Légende :    VFR   VFR Marginal   IFR   IFR Intensif   IFR Très Intensif
Visi : 
Plafond : 
>= 8 km
>= 3000ft
5 à 8 km
1000 à 3000 ft
1500m à 5 km
500 à 1000 ft
800 à 1500m
200 à 500 ft
< 800m
< 200 ft
Symboles :   Orages  Brouillard  Fortes neiges  Fortes précipitations  Vent > 20 kt






- Altitude de l'aérodrome : 277 ft
- Code IATA : LET


SKLT - Alfredo Vásquez Cobo International

DERNIER METAR :
  • 192100Z 10009KT 040V170 9999 SCT015 BKN080 29/24 A2976

METARs EXPIRÉS :
  • 192000Z 11004KT 9999 SCT017 BKN200 34/25 A2977
  • 191900Z 11003KT 9999 FEW020 BKN200 35/26 A2978

TAF TAF SKLT
Valide du 19 à 18h jusqu'au 20 à 18h UTC


191630Z 1918/2018 26006KT 9999 SCT015 BKN080
TEMPO 1918/1922 5000 TSRA BKN012CB
BECMG 2000/2001 VRB02KT FEW010 BKN080
PROB40
TEMPO 2009/2012 4000 BR BKN010 TX34/1918Z TN24/2010Z
FIR SKED / Amérique du Sud



MET'MAP, la Météo Aéronautique d'un coup d'oeil ! - Copyright ORBIFLY Décembre 2007 - Disclaimer

ORBIFLY MET'MAP TEAM :

Programmation & Développement : Alexandra Zaïnal
Sur une idée originale de : Baudouin d'Aumeries
Assistance à la programmation : Marc-Olivier Méhu
Soutien technique & logistique : Manuel Goepfert

Contact : metmap@orbifly.com




SOURCES & CREDITS :

   NOAA       Earth
Advisory